Cloud_Cover
68 68 76 76 76 76 68 68 64 64 64 68 68 68 68 68 64 56 56 56 56 56 56 48 44 48 56 56 56 56 56 56 56 68 76 88 88 92 92 92 92 92 92 92 88 80 76 48 44 64 80 76 64 36 32 76 88 92 92 88 88 80 64 48 44 36 32 20 12
68 68 68 68 68 64 64 64 64 64 68 68 68 64 64 64 64 64 56 56 48 48 48 48 48 56 64 56 56 56 56 64 68 68 76 92 92 92 92 92 92 92 92 92 92 92 92 88 88 92 92 92 76 64 64 64 88 92 92 92 68 76 88 80 56 32 20 12 8
64 64 64 64 56 56 56 48 48 64 68 64 64 56 56 64 56 56 48 48 44 44 48 48 64 64 56 48 48 56 64 64 64 80 92 92 92 92 92 88 92 88 88 92 92 92 92 92 92 92 92 92 92 92 88 88 80 80 80 80 68 76 80 64 68 76 80 80 76
56 56 56 56 48 48 48 44 44 56 64 64 56 64 64 56 56 48 44 44 44 44 48 68 64 56 48 44 44 64 80 76 80 80 88 92 92 88 80 76 92 92 92 92 92 88 88 92 92 92 92 92 92 92 92 92 92 88 88 88 92 92 92 88 92 92 92 92 92
56 56 56 48 48 48 48 56 64 56 56 56 64 64 56 48 48 44 44 44 44 48 64 68 56 48 44 44 64 80 92 92 76 76 88 92 88 88 88 88 80 88 92 92 88 88 88 92 92 92 92 92 92 92 92 92 92 92 92 92 92 92 92 92 92 92 92 92 92
48 56 56 64 64 64 64 64 56 56 56 64 64 56 48 48 44 36 36 44 48 56 56 56 48 48 48 64 88 80 64 56 48 76 92 92 88 92 92 92 92 92 92 92 88 88 92 92 92 92 92 92 92 92 92 92 92 92 92 92 92 92 92 92 92 92 92 92 92
68 68 64 64 64 64 64 64 64 64 56 56 56 48 48 44 36 44 48 56 56 56 48 44 48 56 68 80 68 76 68 48 48 68 76 44 80 92 92 92 92 92 92 92 88 92 92 92 92 92 92 92 92 92 92 92 92 92 92 92 92 92 92 92 92 92 92 92 92
68 68 68 68 68 68 64 64 56 48 48 44 44 44 36 36 44 48 48 48 48 44 32 36 64 80 88 76 80 88 92 80 80 76 76 88 92 92 92 88 88 88 88 92 92 92 92 88 92 92 92 92 92 92 92 92 92 92 92 92 92 92 92 92 92 92 92 92 92
68 76 76 68 68 64 64 56 56 56 56 48 48 44 44 44 48 48 48 48 68 64 48 56 68 76 76 80 92 92 92 88 88 80 68 64 80 88 80 76 80 88 88 92 68 76 92 92 92 92 92 92 88 88 92 92 92 92 92 92 92 92 92 92 92 92 92 92 92
80 80 80 76 76 76 68 68 64 64 56 48 48 44 44 44 56 64 64 68 64 68 76 68 68 68 76 92 88 80 68 56 64 68 68 68 68 64 56 48 56 76 88 80 44 44 56 76 88 92 92 92 88 88 92 92 92 92 92 92 88 92 92 92 92 92 92 92 92
92 92 88 76 76 76 76 68 56 56 48 56 56 56 56 56 56 64 68 68 76 80 80 68 76 88 92 88 68 68 68 76 88 88 76 36 68 76 64 56 44 64 68 36 36 24 24 48 64 80 88 76 76 76 80 92 92 92 92 92 64 68 92 92 92 92 92 92 88
92 88 80 76 76 68 64 56 48 48 56 64 64 64 64 56 48 56 76 92 88 80 68 64 80 88 88 76 68 80 92 92 76 68 64 48 64 56 48 48 32 48 68 64 12 0 8 8 36 56 64 48 56 68 80 92 92 92 92 92 76 68 76 92 92 92 92 92 92
76 68 64 64 64 56 56 44 44 48 56 64 64 56 48 44 44 48 64 80 68 68 80 88 80 88 92 92 80 88 92 92 76 68 68 68 56 44 32 24 48 56 48 32 20 12 8 0 12 32 48 68 68 76 76 92 92 92 92 92 92 88 88 92 92 92 92 92 92
68 64 56 56 48 44 44 36 36 36 44 44 44 44 36 32 24 24 32 44 44 48 68 92 88 88 92 92 92 92 92 88 80 80 88 76 56 44 32 24 56 68 64 32 20 12 8 0 0 20 48 68 80 88 80 80 80 80 88 88 92 92 92 92 92 88 80 88 88
76 68 64 56 48 44 44 36 36 32 32 32 24 24 20 20 12 20 32 44 56 80 88 76 76 80 92 92 92 92 88 80 80 80 76 68 48 36 24 24 44 64 64 36 20 12 12 0 20 44 64 64 76 80 76 64 56 56 64 76 88 92 92 92 88 68 64 76 76
76 68 68 64 56 48 48 48 44 36 32 24 24 20 12 12 8 36 64 56 80 88 76 56 76 88 92 92 92 88 88 92 92 88 68 44 24 20 20 24 44 64 76 76 56 48 48 36 68 68 68 80 64 68 76 80 68 64 64 76 80 80 80 80 68 68 76 80 80
64 64 64 56 56 48 48 44 36 32 24 20 20 12 12 8 20 48 76 76 88 88 76 76 88 92 92 92 92 88 88 92 88 80 64 20 12 8 12 32 36 44 56 76 88 88 92 92 92 80 76 92 80 80 92 92 92 92 88 80 80 80 76 80 80 80 88 92 92
44 44 44 44 44 36 36 32 24 20 20 32 48 48 48 48 44 64 80 92 92 88 88 92 92 92 92 92 68 68 76 92 80 64 36 12 8 8 8 12 12 12 12 32 76 88 88 88 88 92 92 92 92 92 92 92 92 92 92 88 88 92 92 92 92 92 92 92 92
32 32 32 32 32 24 20 20 12 8 12 32 44 68 88 80 44 64 92 92 88 88 88 92 92 92 92 92 56 48 64 88 76 48 24 8 8 0 0 0 0 0 12 48 80 88 88 92 92 92 92 92 92 92 92 92 92 92 92 92 92 92 92 92 92 92 88 88 92
24 24 24 20 20 12 12 12 8 8 0 12 8 32 56 56 24 48 92 92 88 92 92 92 92 92 88 80 56 64 76 88 76 56 32 8 12 12 20 48 24 24 44 88 88 88 88 88 88 92 92 92 92 92 92 92 92 92 92 92 92 92 92 92 92 92 88 88 92
24 20 12 12 8 8 8 20 12 12 8 8 44 44 24 32 12 36 80 92 92 88 88 92 92 92 92 88 80 76 80 92 76 56 32 20 44 56 68 88 76 76 80 88 88 88 88 88 88 88 88 88 92 92 88 88 88 88 88 92 92 92 92 92 80 68 76 92 92
20 20 12 8 8 0 0 8 8 8 12 36 44 32 20 24 32 64 88 92 92 92 88 92 92 88 80 92 92 88 76 76 56 48 44 48 76 64 48 64 80 88 88 88 88 88 88 92 88 88 88 92 92 92 92 92 92 92 92 92 92 92 92 92 76 76 80 92 92
20 12 12 8 8 8 8 8 8 8 20 48 56 48 44 48 76 88 92 92 92 92 92 92 92 88 88 92 92 92 88 80 56 64 80 80 68 68 68 64 80 88 88 88 88 88 88 92 88 88 88 88 92 92 92 92 92 92 92 92 92 92 92 92 88 92 92 92 92
8 8 8 8 8 8 8 8 8 12 24 56 64 64 56 56 80 92 88 76 88 92 92 92 92 92 92 92 92 92 92 88 80 88 92 92 80 80 68 44 76 80 76 88 88 88 88 88 88 88 88 88 88 88 88 88 88 88 88 92 92 92 92 92 92 88 76 68 68
12 12 12 12 12 12 12 12 8 12 24 48 80 76 64 64 64 64 76 88 92 92 92 92 92 92 92 92 92 92 88 88 88 88 88 88 88 76 64 44 76 88 88 92 88 88 88 88 88 80 80 92 92 92 88 88 88 88 88 88 92 80 76 80 80 80 80 76 68
12 12 12 12 12 12 8 8 8 12 24 56 80 88 88 88 88 88 80 68 88 92 92 92 92 92 92 92 92 92 92 92 88 88 88 88 88 76 64 64 80 88 88 88 88 92 92 92 92 88 88 92 92 92 92 92 92 92 92 92 92 88 88 88 88 68 56 64 68
8 8 8 8 8 8 8 8 8 20 36 64 80 88 88 88 88 88 88 88 88 88 92 92 92 92 92 92 92 92 92 92 92 88 88 88 88 68 56 64 80 68 48 68 88 92 92 92 92 92 92 92 92 92 92 92 92 92 92 92 92 92 88 88 56 44 44 56 56
8 8 8 8 8 8 0 0 32 44 56 64 64 76 76 24 24 36 56 68 88 92 92 92 92 92 92 92 92 92 92 92 92 80 64 48 48 44 56 88 92 88 88 88 92 92 92 92 92 92 92 92 92 92 92 92 92 92 92 88 92 92 88 88 88 76 64 56 32
0 0 0 0 0 0 0 0 36 56 64 88 36 20 12 32 44 48 64 80 88 92 92 92 88 68 56 92 92 92 92 92 92 80 80 88 88 88 88 88 88 76 68 92 92 80 80 92 92 92 92 92 92 92 92 92 92 92 92 92 80 88 92 92 80 64 56 76 32
0 0 0 0 0 0 0 0 32 32 20 8 12 20 32 56 80 88 80 56 64 76 88 88 88 88 80 88 80 80 88 88 88 88 88 88 92 88 88 76 88 88 88 92 92 92 92 92 92 92 92 92 92 92 92 92 88 80 76 88 80 80 80 80 80 76 68 68 68
0 0 0 0 0 0 0 8 24 24 12 12 36 48 48 64 80 88 80 68 80 88 88 88 88 80 76 88 88 76 68 88 88 88 88 76 88 88 88 76 76 76 80 92 92 92 92 92 92 92 88 88 88 92 88 88 76 68 64 56 68 76 80 92 92 88 80 68 68
0 0 0 0 0 0 12 36 36 32 32 44 48 44 56 88 64 68 88 88 88 88 88 88 88 80 76 76 68 68 76 92 88 88 88 88 88 88 92 92 92 92 92 92 92 92 92 88 88 88 80 68 76 76 64 48 64 64 64 56 56 64 76 88 88 80 76 76 68
0 0 0 0 0 8 32 88 68 76 76 24 24 36 48 68 48 44 44 64 80 80 76 68 68 68 68 68 68 80 88 92 92 92 88 88 76 76 76 76 80 80 88 92 92 92 88 88 80 68 56 56 48 44 36 32 32 32 36 44 44 48 48 64 64 56 48 44 44
44 44 24 12 12 20 36 88 76 76 76 44 32 36 64 80 88 68 48 36 68 88 92 92 88 80 80 76 68 68 76 88 88 88 88 88 80 68 68 76 88 92 88 88 88 88 88 80 68 68 68 68 68 56 44 44 36 36 32 32 24 24 32 32 36 36 36 36 36
88 68 44 20 20 36 64 88 88 88 76 44 24 48 80 88 80 48 32 24 36 68 92 88 88 88 76 56 64 64 68 88 88 88 88 88 88 88 88 88 88 92 92 88 88 88 76 64 68 76 80 92 88 76 64 44 36 44 48 44 48 48 44 36 32 32 32 36 48
80 48 24 20 24 56 88 88 88 88 76 32 32 56 88 88 48 36 36 32 32 56 80 88 88 68 56 64 68 68 68 80 80 88 88 88 88 88 88 88 88 88 88 88 88 80 68 76 76 80 80 88 80 80 76 64 64 64 64 56 56 48 44 44 36 36 48 56 64
56 32 20 32 36 64 88 88 88 88 68 32 44 68 88 88 68 56 48 44 36 44 56 80 68 64 56 64 68 68 68 68 68 76 80 88 88 80 80 88 88 88 88 88 88 88 88 88 88 80 80 80 76 80 80 68 80 80 76 76 68 68 68 76 68 68 64 56 64
68 44 32 48 56 68 88 88 88 80 64 32 76 88 88 88 80 64 44 32 32 44 56 68 64 68 68 64 64 64 68 76 76 68 76 88 88 88 80 68 80 80 80 88 88 88 88 88 80 80 80 88 76 68 68 76 76 80 80 88 92 92 88 80 80 76 68 64 56
88 68 48 64 64 76 88 88 88 88 80 56 80 88 88 80 64 56 48 36 44 44 48 56 76 76 68 56 64 64 68 76 80 80 80 80 76 76 68 48 76 76 76 88 80 80 76 64 64 68 76 76 68 64 56 56 64 68 76 76 76 76 76 64 68 68 68 64 64
88 80 68 68 76 80 88 88 88 88 88 88 88 80 68 64 64 76 80 76 68 64 64 76 88 76 48 56 68 68 64 68 80 88 88 76 64 56 64 68 80 76 68 80 64 56 48 44 48 56 64 56 56 48 44 48 44 48 56 56 56 56 64 64 64 64 56 56 56
88 88 80 88 88 88 88 88 88 88 88 88 88 68 56 64 76 88 88 88 80 80 80 88 80 68 48 56 76 76 68 76 88 88 88 80 68 64 64 68 76 68 64 56 48 44 44 44 44 48 48 48 48 44 36 36 32 44 48 48 48 48 56 64 56 56 48 56 56